Location: G�kdere
(37.0328°N, 30.9000°E)
Time: 04:36:20
(UTC+00:00)

Cosmos 1633 Rocket - Pass Details

Date: 03 March 2021
Orbit: 606 x 624 km, 82.5° (Epoch: 20 April)

Event Time Altitude Azimuth Distance (km) Brightness Sun altitude
Rises 16:16:10 0° 182° (S) 2,883 6.6 -5.5°
Reaches altitude 10° 16:18:23 10° 181° (S) 1,983 5.7 -6.0°
Maximum altitude 16:22:46 77° 96° (E) 643 3.0 -6.8°
Drops below altitude 10° 16:27:12 10° 10° (N) 2,003 5.6 -7.7°
Sets 16:29:27 0° 9° (N) 2,914 6.4 -8.2°
